Tracking 27380 objects as of 6-Jun-2023
HD Live streaming from Space Station
objects crossing your sky now

NSAT 110

Track NSAT 110 now!
NSAT 110 is classified as:


NORAD ID: 26559
Int'l Code: 2000-060A
Perigee: 36,071.3 km
Apogee: 36,134.8 km
Inclination: 4.0 °
Period: 1,451.9 minutes
Semi major axis: 42474 km
RCS: 12.5892 m2 (large)
Launch date: October 6, 2000
Source: Japan (JPN)
Launch site: FRENCH GUIANA (FRGUI)

24 Ku-band; voice and video communications to Japan.
Your satellite tracking list
Your tracking list is empty




NASA's NSSDC Master Catalog

Two Line Element Set (TLE):
1 26559U 00060A   23156.87567427 -.00000051  00000-0  00000-0 0  9993
2 26559   3.9575  83.0023 0007469  20.9393  19.6829  0.99178550 82847
Source of the keplerian elements: AFSPC